Location: Unspecified
(17.6330°N, 0.0000°E)
Time: 02:19:06
(UTC+00:00)

S-56A Canister/Altair - Pass Details

Date: 04 July 2019
Orbit: 633 x 2499 km, 38.9° (Epoch: 17 August)

Event Time Altitude Azimuth Distance (km) Brightness Sun altitude
Rises 15:11:26 0° 302° (WNW) 5,721 12.7 46.0°
Reaches altitude 10° 15:16:52 10° 316° (NW) 4,401 12.2 44.8°
Maximum altitude 15:24:58 22° 1° (N) 2,995 10.9 42.9°
Drops below altitude 10° 15:31:12 10° 49° (NE) 3,286 10.6 41.5°
Sets 15:34:30 0° 65° (ENE) 3,962 10.8 40.7°
